Location: American Canyon
(38.1749°N, 122.2608°W)
Time: 04:53:36
(UTC+00:00)

Daily predictions for brighter satellites

Satellite Brightness Start Highest point End
(mag) Time Altitude Azimuth Time Altitude Azimuth Time Altitude Azimuth
H-2A ROCKET BODY 3.9 03:01:15 10° WSW 03:05:35 34° S 03:19:32 10° ESE
CZ-4B R/B 3.9 03:06:58 10° SE 03:12:03 36° ENE 03:17:07 10° N
Hubble Space Telescope 2.5 03:10:28 10° SW 03:13:13 18° S 03:15:59 10° SE
[s.n.70599] 3.2 03:11:06 10° WNW 03:13:32 41° SSW 03:15:56 10° SE
Cosmos 1733 Rocket 4.5 03:09:25 10° SSW 03:13:39 45° W 03:17:55 10° N
Cosmos 2341 Rocket 4.5 03:08:40 10° N 03:14:35 40° ENE 03:20:23 10° SE
Meteor 2-11 Rocket 4.4 03:13:14 10° N 03:19:22 82° E 03:25:26 10° S
Cosmos 2082 Rocket 3.6 03:14:15 10° NW 03:19:36 42° WSW 03:24:54 10° S
Resurs 1-3 3.7 03:16:07 10° SSE 03:20:23 58° ENE 03:24:40 10° N
USA 234 3.5 03:16:16 10° ESE 03:22:38 57° NE 03:29:00 10° NW
NOSS 3-1 (C) 3.5 03:19:44 10° S 03:23:52 32° ESE 03:28:31 10° NE
IKONOS-2 4.5 03:20:45 10° NNE 03:24:56 62° E 03:29:05 10° S
Cosmos 1025 Rocket 3.7 03:23:45 10° NNE 03:27:46 35° ENE 03:31:45 10° SE
Okean O Rocket 2.6 03:26:51 10° SE 03:30:32 28° ENE 03:34:16 10° N
Cosmos 2366 rocket 4.3 03:27:54 10° N 03:34:00 47° ENE 03:40:04 10° SSE
YAOGAN 1 4.3 03:32:22 10° SSW 03:36:16 34° W 03:40:11 10° NNW
Resurs 01 Rocket 2.4 03:32:29 11° SE 03:36:18 33° ENE 03:40:16 10° N
Cosmos 1346 Rocket 2.7 03:32:51 10° S 03:36:36 58° E 03:40:22 10° NNE
CARTOSAT-1 4.4 03:35:11 13° SE 03:38:23 30° ENE 03:42:08 10° N
SJ-6B 2.9 03:34:39 10° S 03:38:35 82° W 03:42:33 10° NNW
Cosmos 1975 Rocket 4.1 03:36:29 10° NNE 03:40:05 25° ENE 03:42:18 17° ESE
Cosmos 2218 Rocket 4.2 03:35:14 10° N 03:41:28 52° E 03:47:36 10° SSE
Cosmos 1328 3.8 03:39:45 10° N 03:43:26 50° E 03:46:50 12° SSE
ATLAS 3B R/B 3.4 03:39:10 10° S 03:45:05 32° ESE 03:51:23 10° NE
Cosmos 1302 Rocket 4.0 03:41:25 10° SSW 03:46:41 87° ESE 03:51:58 10° NNE
Iridium 921 4.5 03:44:11 10° N 03:47:41 83° W 03:51:10 10° S
OAO 3 Rocket 3.4 03:43:00 10° W 03:47:49 61° S 03:51:07 20° ESE
Centaur D-1AR AC-36 4.4 03:46:07 10° S 03:49:27 16° SE 03:50:47 15° SE
Cosmos 1892 2.7 03:47:30 10° NNW 03:51:04 73° W 03:54:35 10° S
USA 281 3.7 03:46:26 16° ESE 03:51:22 43° ENE 03:57:29 10° N
USA 186 1.5 03:49:11 14° SSE 03:51:47 73° ENE 03:54:50 10° N
Cosmos 1782 Rocket 3.4 03:47:57 10° S 03:52:16 72° E 03:56:39 10° NNE
Meteor 1-21 Rocket 4.3 03:50:42 10° N 03:56:37 68° E 04:02:29 10° SSE
DELTA 2 R/B (1) 3.9 03:52:04 10° W 03:57:33 57° SSW 04:01:06 22° SE
SL-4 R/B 4.5 03:57:01 10° NW 03:59:07 14° NNW 04:01:10 10° NNE
CZ-4 R/B 2.2 03:55:30 10° S 03:59:21 50° W 04:03:10 10° NNW
Cosmos 1455 2.4 03:58:07 10° SSW 04:01:39 63° W 04:05:12 10° N
ATLAS 5 CENTAUR R/B 1.0 04:01:21 10° SSW 04:04:31 47° ESE 04:07:52 10° NE
SPOT 5 4.3 04:03:53 21° E 04:05:25 24° ENE 04:09:38 10° NNE
Cosmos 968 Rocket 3.8 04:02:12 10° NNW 04:07:16 66° WSW 04:12:18 10° S
Cosmos 864 Rocket 4.5 04:05:19 10° N 04:11:34 89° W 04:17:51 10° S
Cosmos 1953 4.1 04:09:36 10° SW 04:13:01 31° WNW 04:16:28 10° NNW
Meteor 1-11 4.4 04:10:44 10° N 04:16:14 51° ENE 04:18:52 29° SE
ERS-1 Rocket 4.5 04:16:11 19° ENE 04:16:32 19° ENE 04:19:58 10° NNE
Feng Yun 1-1 Rocket 4.4 04:11:06 10° S 04:16:32 73° WSW 04:22:08 10° NNW
Cosmos 1300 Rocket 3.7 04:14:15 10° SSW 04:18:35 72° W 04:22:58 10° N
CSL-04 Debris 4.3 04:15:49 11° S 04:21:01 73° WSW 04:26:29 10° NNW
USA 129 4.4 04:24:05 10° NNW 04:25:52 21° NW 04:25:52 21° NW
Okean 2 Rocket 4.3 04:29:19 27° ENE 04:29:19 27° ENE 04:32:10 10° NNE
SJ 16-02 1.5 04:24:43 10° NNW 04:29:01 68° WSW 04:30:56 32° S
MOS 1 4.4 04:28:08 36° SE 04:30:17 56° ENE 04:35:51 10° N
CZ-4C R/B 2.8 04:27:43 10° NNE 04:31:09 88° WNW 04:31:37 64° SSW
CSL-04 Rocket 4.1 04:26:37 13° S 04:31:28 64° WSW 04:36:57 10° NNW
In-Cosmos 22 Rocket 4.0 04:28:20 10° N 04:33:46 87° E 04:36:36 30° S
OAO 1 Rocket 4.5 04:28:33 10° WSW 04:33:46 60° S 04:34:58 47° SE
IRS-1C Rocket 4.3 04:37:49 44° ESE 04:38:42 49° ENE 04:43:47 10° N
Cosmos 2297 Rocket 4.2 04:38:16 10° NNE 04:40:50 13° NE 04:41:24 13° NE
Cosmos 2369 Rocket 4.5 04:36:18 10° WSW 04:40:56 25° WNW 04:45:36 10° N
Cosmos 1992 Rocket 4.4 04:36:06 10° SSW 04:41:13 61° WNW 04:46:24 10° NNE
Cosmos 2098 Rocket 3.9 04:37:39 10° SSW 04:43:10 59° W 04:47:44 10° N
Sich 1 Rocket 4.4 04:45:04 37° NE 04:45:04 37° NE 04:48:06 10° NNE
Okean-O 2.5 04:43:30 58° S 04:44:20 87° WSW 04:48:46 10° NNW
MetOp-B 4.1 04:46:23 53° ESE 04:47:15 61° ENE 04:52:32 10° N
Terra 3.0 04:48:09 27° NE 04:48:09 27° NE 04:51:23 10° N
NOSS 3-1 (A) 2.7 04:45:57 10° SSW 04:50:41 81° ESE 04:56:14 10° NE
Hubble Space Telescope 3.0 04:50:25 10° SW 04:51:24 14° SW 04:51:24 14° SW
USA 245 4.3 04:59:47 54° ENE 04:59:48 54° ENE 05:04:48 10° N
IRS-1A Rocket 4.3 05:03:42 64° SE 05:04:34 76° ENE 05:10:28 10° N
USA 234 4.2 05:03:04 28° S 05:05:43 39° SW 05:11:45 10° WNW
Ariane Rocket 3.7 05:07:21 39° NE 05:07:21 39° NE 05:11:12 10° N
Okean O Rocket 3.7 05:04:11 14° SW 05:06:47 23° W 05:10:14 10° NW
Resurs 01 Rocket 4.0 05:09:59 12° SW 05:12:47 20° W 05:16:01 10° NW
SPOT 3 Rocket 4.3 05:15:06 41° NE 05:15:06 41° NE 05:19:02 10° N
Cosmos 1486 Rocket 4.0 05:15:24 10° NNW 05:20:11 75° NNW 05:20:11 75° NNW
Iridium 4 Rocket 3.8 05:29:08 69° N 05:29:08 69° N 05:34:04 10° N
ATLAS 3B R/B 3.5 05:28:41 10° SW 05:35:28 52° NW 05:42:46 10° NNE
USA 281 4.4 05:33:18 26° SW 05:35:51 34° WSW 05:41:45 10° NW
Cosmos 1605 Rocket 4.3 05:34:48 10° N 05:40:11 58° NE 05:40:11 58° NE
SPOT 5 4.0 05:43:02 41° W 05:43:08 41° W 05:48:09 10° NNW
ATLAS 5 CENTAUR R/B 4.4 05:47:31 10° WNW 05:48:47 12° NW 05:50:05 10° NNW
ERS-1 Rocket 4.2 05:56:07 39° WNW 05:56:07 39° WNW 05:59:43 10° NNW
Cosmos 2227 Rocket 3.9 05:51:42 10° N 05:54:46 23° NNE 05:54:46 23° NNE
CZ-4C R/B 3.9 06:14:52 10° NNW 06:21:29 38° NE 06:21:29 38° NE
Terra 4.1 06:26:51 20° WNW 06:26:51 20° WNW 06:28:50 10° NW
Cosmos 2297 Rocket 3.6 06:20:01 10° NNW 06:23:12 35° NNW 06:23:12 35° NNW
COSMOS 2455 4.1 06:23:32 10° NNW 06:27:12 36° N 06:27:12 36° N
Cosmos 2263 Rocket 4.3 06:55:18 10° N 06:57:20 20° NNE 06:57:20 20° NNE
CENTAUR R/B 4.0 06:54:44 10° NNW 07:02:34 42° NE 07:02:34 42° NE
CZ-4C R/B 4.3 08:02:58 10° NW 08:06:34 31° NW 08:06:34 31° NW
Cosmos 2322 Rocket 4.4 08:48:27 20° NNE 08:48:27 20° NNE 08:50:04 10° NNE
CENTAUR R/B 4.3 08:45:17 10° NW 08:49:42 34° NW 08:49:42 34° NW
SL-16 R/B 4.3 09:04:26 22° N 09:04:26 22° N 09:06:29 10° N
USA 215 4.3 08:58:16 10° NE 09:02:42 39° N 09:02:42 39° N
CZ-2D R/B 4.1 09:28:21 10° NNE 09:30:50 25° NE 09:30:50 25° NE
USA 267 4.4 09:39:08 34° NNW 09:39:08 34° NNW 09:42:39 10° NW
SL-16 R/B 4.4 09:36:56 19° E 09:39:20 23° ENE 09:44:04 10° NNE
COSMOS 2428 4.1 09:52:37 34° NE 09:52:37 34° NE 09:56:01 10° NNE
CZ-2C R/B 3.9 09:58:45 38° NE 09:58:45 38° NE 10:02:34 10° N
Cosmos 2237 Rocket 4.2 09:58:31 20° E 09:58:31 20° E 10:02:04 10° NE
Lacrosse 5 3.9 10:00:41 24° N 10:00:41 24° N 10:03:11 10° NNE
CZ-2C R/B 4.5 10:01:11 10° NNE 10:04:32 35° NE 10:04:32 35° NE
Resurs 1-4 Rocket 3.3 10:08:05 10° NNE 10:11:14 37° N 10:11:14 37° N
Cosmos 2333 Rocket 3.9 10:16:50 24° NNW 10:16:50 24° NNW 10:19:50 10° N
Cosmos 2360 Rocket 4.1 10:20:20 20° NNW 10:20:20 20° NNW 10:23:04 10° N
Nadezhda 4 Rocket 4.1 10:28:34 68° ENE 10:28:34 68° ENE 10:34:13 10° NNE
Cosmos 2322 Rocket 4.4 10:30:14 14° NW 10:30:14 14° NW 10:32:18 10° NNW
NOSS 0 Rocket 4.2 10:32:14 63° E 10:32:14 63° E 10:37:58 10° NNE
IDEFIX/ARIANE 42P 4.0 10:27:29 10° N 10:30:18 30° NNW 10:30:18 30° NNW
Cosmos 2278 Rocket 3.8 10:28:21 10° N 10:33:24 32° ENE 10:38:25 10° ESE
Cosmos 2219 Rocket 3.6 10:37:32 28° NNW 10:37:32 28° NNW 10:41:02 10° N
RESURS DK-1 4.4 10:39:59 26° NNE 10:39:59 26° NNE 10:41:52 10° NNE
Meteor 2-17 Rocket 4.5 10:38:23 73° E 10:38:23 73° E 10:44:30 10° NNE
ATLAS 5 CENTAUR R/B 4.2 10:42:32 27° SSE 10:42:32 27° SSE 10:46:24 10° SE
CZ-2C R/B 4.4 10:47:12 10° NE 10:51:22 24° E 10:53:57 17° SE
ADEOS II 2.7 10:54:29 10° N 10:58:31 44° NW 10:58:31 44° NW
Meteor 1-19 Rocket 4.3 11:02:23 66° SSE 11:03:14 80° E 11:09:15 10° NNE
Cosmos 923 Rocket 4.1 11:03:38 65° SE 11:03:57 67° ESE 11:09:10 10° NNE
FENGYUN 3A 4.0 11:00:10 10° N 11:04:53 52° NW 11:04:53 52° NW
Cosmos 1092 Rocket 3.9 11:09:38 50° S 11:11:21 81° E 11:17:31 10° N
CZ-2D R/B 3.5 11:08:43 10° NNW 11:12:08 25° NW 11:12:08 25° NW
Envisat 3.6 11:08:22 10° NNE 11:13:18 51° E 11:15:01 36° SSE
Cosmos 1805 Rocket 3.9 11:13:34 10° N 11:17:00 55° NNW 11:17:00 55° NNW
UNK 3.7 11:18:31 69° NW 11:18:31 69° NW 11:22:37 10° NNW
Cosmos 1500 Rocket 4.4 11:14:03 10° NNW 11:17:05 41° NNW 11:17:05 41° NNW
Cosmos 2026 Rocket 3.9 11:16:45 48° S 11:18:42 88° W 11:25:05 10° N
SL-16 R/B 2.5 11:22:00 53° WSW 11:22:27 54° WSW 11:28:32 10° NNW
Cosmos 1733 4.0 11:21:16 10° N 11:23:46 42° N 11:23:46 42° N
YAOGAN 6 3.8 11:23:04 10° NNE 11:26:04 32° E 11:26:19 32° ESE
CZ-4 R/B 3.7 11:23:35 10° NNE 11:28:20 89° WNW 11:29:06 63° SSW
BlueWalker 3 4.2 11:25:27 10° NNW 11:28:38 24° NNE 11:31:46 10° E
Meteor 1-27 Rocket 3.8 11:29:05 52° WSW 11:29:52 56° WNW 11:35:30 10° N
Thor Agena Rocket 4.0 11:26:32 10° NNE 11:31:29 55° ESE 11:34:23 24° S
EO 1 Delta rocket 3.7 11:27:01 10° N 11:31:37 73° W 11:32:15 62° SW
Cosmos 1943 Rocket 2.9 11:26:48 10° NNW 11:32:23 54° ENE 11:37:54 10° SE
Meteor 2-4 Rocket 3.9 11:30:43 25° S 11:33:52 64° E 11:39:17 10° NNE
COSMOS 2428 4.0 11:34:36 23° WNW 11:35:01 24° NW 11:39:32 10° N
CZ-2C R/B 4.4 11:40:13 17° WNW 11:40:13 17° WNW 11:41:59 10° NW
Cosmos 1340 Rocket 2.6 11:39:28 73° S 11:39:48 86° ESE 11:43:40 10° N
ALOS 3.1 11:36:41 10° N 11:40:36 34° WNW 11:40:36 34° WNW
NOAA 11 4.2 11:35:25 10° NNE 11:40:53 80° ESE 11:44:06 26° S
Cosmos 2237 Rocket 2.5 11:40:21 43° WSW 11:41:36 50° WNW 11:47:08 10° NNE
Sich 1 3.9 11:38:38 10° NNW 11:41:29 34° NW 11:41:29 34° NW
Cosmos 1980 4.1 11:41:44 40° W 11:42:56 46° WNW 11:48:23 10° N
Lacrosse 5 4.4 11:41:41 10° NNW 11:43:05 11° NNW 11:44:29 10° N
Cosmos 2112 Rocket 3.9 11:41:26 39° SSW 11:43:30 86° WNW 11:48:52 10° NNE
Cosmos 1867 3.7 11:40:05 10° NW 11:45:20 48° WSW 11:50:32 10° S
CZ-2C R/B 4.5 11:41:49 10° NNW 11:45:34 22° WNW 11:45:34 22° WNW
Cosmos 1805 3.2 11:42:46 10° N 11:46:29 75° E 11:48:23 27° SSE
Cosmos 1328 Rocket 3.7 11:45:30 28° S 11:47:46 75° E 11:52:11 10° N
Aureole 2 4.5 11:43:48 10° NNW 11:47:57 75° WSW 11:48:52 49° S
Meteor 1-11 Rocket 4.3 11:43:33 10° NNW 11:48:31 34° W 11:48:36 34° W
Resurs 1-4 Rocket 4.2 11:51:18 10° NW 11:52:18 11° WNW 11:52:18 11° WNW
Cosmos 1743 Rocket 4.4 11:48:39 10° NNW 11:51:43 31° WNW 11:51:43 31° WNW
